Location: Brantley
(31.5822°N, 86.2569°W)
Time: 18:09:50
(UTC+00:00)

Transit 2A Rocket - Pass Details

Date: 20 February 2026
Orbit: 583 x 900 km, 66.7° (Epoch: 12 March)

Event Time Altitude Azimuth Distance (km) Brightness Sun altitude
Rises 22:08:29 0° 252° (WSW) 3,480 10.1 16.9°
Reaches altitude 10° 22:12:06 10° 274° (W) 2,565 9.0 16.2°
Maximum altitude 22:15:31 15° 309° (NW) 2,203 7.9 15.5°
Drops below altitude 10° 22:18:58 10° 345° (NNW) 2,569 7.7 14.8°
Sets 22:22:38 0° 7° (N) 3,488 8.1 14.1°
